Theta_e
299 300 300 299 298 297 297 297 297 296 297 296 296 298 298 300 300 301 301 301 299 299 298 299 299 300 300 300 301 301 300 301 303 303 303 306 311 313 318 323 324 326 327
298 299 297 296 296 296 297 296 296 296 295 295 295 296 297 297 296 297 297 297 296 296 296 296 296 297 298 298 298 298 298 300 302 300 300 301 305 306 309 313 316 319 324
297 297 297 295 295 295 295 295 294 295 295 295 294 294 295 295 294 294 293 295 295 294 293 293 294 296 297 296 297 297 297 296 300 301 301 300 298 300 305 306 309 310 311
298 297 295 294 294 294 295 294 294 293 293 293 291 290 290 290 291 291 291 293 294 293 293 293 293 295 295 295 295 296 296 297 296 299 303 302 303 300 297 303 305 305 308
296 295 294 295 294 294 293 292 293 292 292 291 290 289 289 289 289 289 290 291 293 293 293 294 294 293 294 294 294 295 295 297 297 296 298 300 302 302 301 298 299 302 305
295 295 295 295 293 292 291 290 291 291 291 290 289 289 287 287 287 288 289 289 291 292 292 293 293 293 293 293 294 295 294 294 295 295 296 296 296 297 297 297 297 297 300
294 294 293 292 291 290 290 289 290 289 290 289 289 288 288 287 287 287 289 287 289 289 290 292 291 291 292 293 293 292 292 291 292 291 291 293 293 293 295 295 295 295 297
294 294 293 292 291 290 289 289 289 289 290 289 289 289 289 289 287 290 289 287 289 289 290 290 290 290 290 292 292 291 291 291 290 288 288 289 290 291 291 291 290 290 293
293 294 293 291 290 289 288 288 288 289 290 291 291 291 291 290 289 290 290 288 288 289 288 288 287 288 289 290 291 290 290 290 288 287 287 287 289 290 290 290 290 289 288
293 293 291 290 289 289 288 287 288 288 291 292 291 291 291 290 290 289 288 286 287 287 285 286 286 286 287 288 290 288 288 288 285 286 284 285 286 288 289 288 288 288 287
293 292 290 290 289 288 287 287 288 289 291 291 291 290 289 287 287 286 286 286 285 285 282 282 283 283 285 286 286 286 285 285 283 282 282 282 284 286 287 287 287 286 287
293 292 290 289 288 288 287 287 287 288 289 290 290 287 286 286 285 284 284 284 283 283 282 281 281 283 284 284 284 282 282 281 281 279 280 280 283 283 285 285 284 284 286
293 291 289 288 288 288 288 287 288 288 289 289 286 285 285 284 283 283 283 283 282 280 280 280 280 281 283 283 283 280 279 279 279 279 279 279 280 280 282 282 282 282 284
294 291 289 289 289 289 288 288 288 289 290 288 286 284 284 284 283 282 281 281 281 279 278 279 279 281 283 283 282 279 277 278 277 278 279 279 278 279 280 280 280 281 282
295 293 291 289 288 288 289 289 289 290 289 287 285 283 283 283 282 281 280 280 280 278 278 278 279 281 283 282 280 278 277 276 276 277 278 279 279 280 280 279 279 279 279
296 296 292 289 288 288 288 288 289 289 287 284 283 283 283 282 281 280 279 279 278 278 277 277 278 279 281 283 281 279 277 276 276 276 277 278 278 277 278 279 279 279 277
297 296 291 289 289 289 289 288 287 286 285 283 283 282 282 281 280 280 279 277 275 275 275 276 277 277 280 281 280 278 276 275 275 275 275 277 277 276 275 276 276 275 278
298 296 290 290 289 289 289 286 286 284 284 283 282 281 280 280 279 278 276 275 273 268 268 272 273 276 278 280 278 277 275 274 274 274 275 274 276 275 274 273 272 271 271
297 291 291 290 289 288 287 285 283 283 282 281 280 280 280 278 278 273 272 272 273 269 267 269 272 272 273 278 278 276 273 271 271 274 275 275 275 277 275 271 270 268 268
290 290 288 288 288 286 285 283 282 281 279 280 280 280 279 275 272 269 273 272 270 268 271 269 268 275 269 279 278 273 270 269 270 271 272 278 276 277 276 269 268 266 266
287 288 288 287 286 285 284 281 281 279 280 280 280 280 279 278 276 273 271 276 273 268 266 266 266 267 271 273 278 278 266 266 270 271 270 273 276 277 276 274 269 268 266
286 287 286 285 285 284 283 280 279 279 280 280 279 278 279 280 279 275 276 277 275 268 263 264 265 265 265 276 277 278 277 275 269 264 267 272 275 274 275 272 273 272 266
285 286 286 285 284 284 282 279 279 281 280 279 277 278 279 279 278 276 276 274 273 271 270 269 264 264 267 265 276 277 277 275 267 268 274 273 273 272 269 272 271 266 265
284 285 285 283 282 283 282 281 281 281 280 279 278 279 276 275 275 275 275 274 272 271 271 269 264 263 266 266 268 268 268 271 268 266 265 265 269 261 261 263 265 265 263
284 285 284 283 282 283 281 281 281 280 279 279 279 278 276 274 274 273 272 273 270 272 270 267 267 263 263 267 274 272 268 265 266 263 261 259 257 258 261 262 262 263 264
284 283 283 283 282 281 281 281 281 280 279 278 277 276 275 273 273 273 272 276 276 276 275 274 271 267 274 276 276 276 274 273 271 264 258 257 256 259 261 261 261 263 263
Wind_Speed
8 10 9 9 9 8 8 7 8 6 5 4 4 4 3 3 6 7 11 11 10 10 10 7 8 8 8 8 9 6 9 3 8 4 5 5 4 3 2 2 3 4 5
11 10 8 7 7 8 7 8 7 7 5 3 2 2 1 4 3 5 8 9 10 11 10 9 7 8 6 8 9 9 6 3 7 4 4 5 5 6 4 2 3 6 4
17 12 9 8 7 8 7 8 7 8 7 7 4 4 3 3 4 6 6 6 8 9 9 8 7 8 7 6 8 8 9 6 6 8 3 3 3 7 4 4 3 5 4
14 12 11 8 8 7 8 8 7 8 7 7 5 7 4 4 3 3 3 5 6 8 8 7 7 8 5 7 7 7 7 6 6 5 5 3 3 3 6 3 4 6 5
17 14 12 11 9 8 8 7 8 8 7 7 7 5 5 3 2 3 5 6 6 8 9 9 8 7 5 6 7 7 7 5 5 5 4 5 5 6 5 10 3 5 4
13 12 11 11 8 7 8 7 8 7 7 7 7 6 6 4 4 5 4 4 5 6 9 9 8 8 7 7 6 7 7 6 6 5 5 5 3 4 3 4 10 12 5
16 14 14 11 9 8 8 7 8 7 7 7 6 5 6 6 6 4 4 4 5 5 7 8 8 7 9 8 7 7 7 7 6 7 6 5 5 5 5 6 7 6 6
14 14 13 12 10 9 8 8 7 7 7 6 5 4 6 4 4 6 4 3 4 4 6 8 8 10 10 9 7 6 6 7 7 10 8 6 6 6 6 6 7 5 4
14 14 12 12 10 8 8 9 7 7 6 5 4 4 4 5 4 4 3 3 4 3 6 7 8 9 9 10 7 6 8 7 8 9 9 7 6 6 6 6 6 5 4
12 12 12 12 8 9 8 8 7 7 5 5 4 4 5 4 4 3 4 6 6 8 8 9 9 8 9 9 9 8 9 8 9 8 11 10 8 6 6 6 6 5 4
14 13 12 12 11 9 8 8 7 7 5 4 4 5 5 4 4 4 5 6 7 8 9 9 8 8 9 9 7 8 10 11 11 11 11 12 11 8 6 7 6 6 5
14 13 14 12 12 11 9 8 7 7 6 5 4 5 6 5 5 6 6 8 8 9 7 8 8 8 9 8 8 10 10 11 11 11 11 12 10 12 10 8 10 9 7
13 11 13 13 12 12 10 9 7 7 6 5 6 6 6 6 6 7 8 10 9 9 8 8 8 8 8 7 10 10 10 10 11 10 12 12 12 12 10 10 10 10 7
16 13 13 13 13 12 11 9 8 6 8 8 7 6 6 7 7 7 8 9 8 8 8 8 7 8 8 9 10 10 10 10 10 10 10 12 13 13 12 11 11 10 8
14 16 16 14 14 13 11 9 7 9 10 10 9 6 7 8 8 8 9 8 8 8 8 8 8 7 8 7 9 10 10 10 10 11 11 13 17 19 16 7 10 11 9
18 20 16 17 18 16 14 11 9 9 11 11 9 7 8 8 8 8 9 8 7 7 8 8 9 8 8 17 18 10 8 10 11 11 10 11 17 14 18 20 22 19 12
18 20 20 19 17 16 14 12 11 11 12 11 8 8 8 8 8 8 8 8 7 7 7 7 6 9 9 16 18 15 7 8 8 8 9 11 11 15 12 17 19 20 23
22 19 17 16 16 16 14 13 13 13 12 10 9 8 8 8 8 8 7 6 5 4 3 5 6 6 10 16 17 16 8 7 8 8 9 8 10 17 14 13 13 12 12
15 15 18 21 17 15 15 15 13 13 12 10 9 8 9 8 8 6 5 6 7 4 4 3 6 7 5 17 16 9 5 6 7 8 6 7 9 23 22 11 11 11 12
16 20 19 17 16 15 16 15 13 13 11 10 9 8 9 8 7 6 7 3 4 4 4 5 5 13 6 17 17 10 3 5 4 6 7 21 15 22 23 11 11 12 12
17 18 17 17 15 15 16 15 14 11 10 10 10 9 8 8 6 5 4 9 8 5 3 3 4 6 7 7 15 14 3 2 3 5 5 7 21 21 23 22 13 15 8
17 15 16 14 12 14 15 14 12 12 12 11 10 8 7 5 5 5 6 10 9 6 3 3 4 4 5 10 13 13 13 11 5 3 3 9 20 21 22 15 23 23 10
11 12 15 15 12 12 14 15 12 13 13 11 9 8 6 5 6 7 8 7 8 6 4 3 2 3 4 3 9 12 14 15 5 4 14 19 20 19 12 21 22 11 9
11 11 14 14 12 12 13 14 14 13 13 12 11 9 9 8 7 5 6 6 6 5 5 3 2 2 3 3 3 4 5 9 9 8 7 8 9 7 5 6 9 8 6
9 11 12 12 12 12 13 13 14 13 12 12 10 10 8 7 7 5 4 5 2 7 6 3 2 3 2 2 8 7 5 4 5 5 5 5 4 4 6 6 7 7 8
9 10 10 12 13 13 13 13 13 13 13 12 9 8 8 7 7 7 7 13 13 13 11 9 4 1 7 9 11 14 13 15 14 6 4 4 4 5 6 6 7 7 9
Wind_Direction
151 126 120 112 107 90 84 82 65 35 31 3 358 16 30 26 41 38 38 48 36 28 29 24 14 11 15 15 2 338 352 346 345 320 332 301 285 296 279 251 241 249 225
146 133 126 106 99 101 98 87 75 58 41 36 1 8 352 59 54 41 45 42 40 32 27 18 11 13 8 10 4 5 345 341 348 336 282 323 331 355 321 24 33 27 343
153 149 135 133 128 111 105 107 93 72 49 36 23 7 27 41 30 35 31 41 45 40 29 19 5 16 13 7 357 1 357 341 327 332 290 325 315 336 310 335 33 50 5
154 150 141 138 123 111 100 100 89 80 67 51 51 51 51 45 11 17 24 28 31 36 29 20 11 13 9 5 354 353 341 337 329 329 346 296 296 308 310 316 327 11 2
155 153 149 142 127 123 119 111 99 86 76 65 62 58 55 52 19 13 20 31 28 29 22 20 9 9 6 359 350 343 338 348 336 346 329 316 307 262 263 289 310 347 4
151 145 142 135 123 114 108 105 99 85 79 69 62 70 76 74 48 28 35 15 32 20 20 17 14 9 10 6 353 7 7 1 352 348 339 331 323 328 308 299 310 308 318
155 150 149 137 131 120 118 112 101 91 91 86 74 75 84 71 60 46 38 21 28 28 19 17 20 17 11 9 13 14 16 9 10 2 350 332 345 331 308 294 301 301 318
158 153 149 145 133 125 114 113 110 105 100 89 86 70 67 71 58 56 44 24 12 24 19 26 23 22 17 6 20 22 23 21 23 13 3 349 347 338 330 315 318 304 281
157 155 142 140 130 126 119 124 117 113 113 128 105 87 90 88 78 68 65 32 348 22 52 36 27 25 23 10 28 25 23 35 22 14 3 2 347 346 344 331 320 310 319
153 148 141 136 134 130 126 122 123 127 136 132 122 128 118 113 107 97 80 50 6 41 43 35 25 16 24 25 31 37 27 32 33 21 5 3 356 350 354 356 344 358 334
158 145 141 144 141 134 134 130 130 136 149 149 155 153 142 127 97 67 56 53 58 59 56 35 22 12 24 22 44 53 38 31 47 23 7 3 1 357 3 5 357 1 352
153 144 144 147 148 145 145 144 152 151 170 176 132 103 101 90 82 67 62 59 69 52 52 45 30 20 24 20 43 45 38 41 38 28 15 8 7 10 6 8 9 3 6
153 146 152 160 159 154 155 154 156 167 170 121 113 98 95 91 82 71 65 60 80 64 46 40 34 21 18 24 69 53 45 44 40 27 21 16 14 15 6 8 9 6 356
171 159 166 169 166 157 157 160 166 163 135 120 106 103 94 93 85 79 71 66 76 64 54 40 28 23 38 52 67 58 53 49 44 32 27 31 26 22 7 17 8 8 360
182 181 176 175 160 155 154 158 149 140 130 116 110 110 102 94 89 81 74 71 69 72 54 48 36 32 39 69 65 61 52 48 45 39 33 34 36 34 29 21 12 15 16
189 188 182 167 161 157 159 163 148 137 120 119 122 118 102 101 98 91 82 77 71 66 60 46 49 43 56 71 72 71 59 49 42 41 31 40 37 34 31 33 32 30 31
198 195 178 170 159 153 155 161 139 129 123 121 129 121 113 110 103 100 96 91 80 72 54 41 40 58 61 70 71 68 57 49 35 25 29 36 40 32 27 30 31 28 32
193 177 159 158 156 152 151 139 137 132 127 130 133 126 120 115 110 106 109 100 88 66 49 36 28 49 66 72 72 66 49 38 30 23 26 20 43 40 32 30 29 23 20
170 158 155 155 151 144 138 134 132 128 126 127 133 134 127 120 115 119 128 110 102 65 40 19 37 38 53 72 73 54 33 25 17 23 14 38 42 48 40 31 29 22 22
138 145 144 142 141 139 135 135 134 126 132 139 142 136 127 124 126 139 135 115 95 89 70 39 18 45 13 81 73 61 31 28 15 14 7 42 49 48 46 38 32 29 6
130 133 135 142 141 136 137 135 129 133 139 138 137 130 129 131 139 150 115 130 114 96 65 54 15 23 31 55 80 74 58 59 27 35 22 39 39 44 43 43 38 35 3
130 136 132 131 126 135 135 128 129 141 143 141 133 129 129 137 144 115 111 137 127 105 69 48 23 4 3 52 63 68 76 64 56 22 18 44 48 37 43 38 37 29 16
131 132 130 125 132 138 136 130 139 143 142 137 137 136 127 107 111 106 113 112 119 125 112 82 37 354 351 357 28 54 79 68 50 50 61 56 47 43 25 38 33 20 21
138 138 135 136 133 135 136 135 145 144 143 140 145 130 120 114 102 97 108 119 125 120 119 108 60 354 354 350 5 45 57 64 60 46 42 41 45 25 11 17 21 15 15
143 145 145 144 140 139 142 147 147 145 145 143 135 134 128 120 113 94 110 115 80 131 138 165 140 101 25 329 101 109 95 67 77 67 37 26 15 12 18 21 14 20 15
149 147 146 145 145 148 149 152 149 148 151 148 137 141 133 126 126 121 114 118 124 130 134 138 129 249 96 71 76 79 75 76 75 54 45 23 19 27 24 19 11 17 17